Regional Weather Roundup
Issued by NWS

Home | Current Version | Previous Version | Graphics & Text | Print | Product List | Glossary Off
Versions: 1 2 3 4 5 6 7 8 9 10 11 12 13 14 15 16 17 18 19 20 21 22 23 24 25 26 27 28 29 30 31 32 33 34 35 36 37 38 39 40 41 42 43 44 45 46 47 48 49 50

000
ASUS43 KLOT 211610
RWRIL

ILLINOIS REGIONAL WEATHER ROUNDUP
NATIONAL WEATHER SERVICE CHICAGO/ROMEOVILLE IL
1000 AM CST SUN DEC 21 2014

NOTE: "FAIR" INDICATES FEW OR NO CLOUDS BELOW 12,000 FEET WITH NO
SIGNIFICANT WEATHER AND/OR OBSTRUCTIONS TO VISIBILITY.

* THESE STATIONS ARE NOT UNDER NWS QUALITY CONTROL. THEY ALSO MAY NOT
  REPORT WEATHER SUCH AS PRECIPITATION OR FOG.

ILZ001-002-007-009-015-016-024-211700-
NORTHWEST ILLINOIS

CITY           SKY/WX    TMP DP  RH WIND       PRES   REMARKS
MOLINE         CLOUDY    38  33  82 S12       30.11S WCI  30
STERLING*      CLOUDY    36  30  80 S7        30.14S WCI  30
SAVANNA*       CLOUDY    36  33  90 S8        30.12S FOG     WCI  29
$$

ILZ003-004-008-010-011-017-018-211700-
NORTH CENTRAL ILLINOIS

CITY           SKY/WX    TMP DP  RH WIND       PRES   REMARKS
ROCKFORD       CLOUDY    34  30  85 S13       30.16F FOG     WCI  25
FREEPORT*      CLOUDY    33  31  94 S15       30.14R FOG     WCI  23
ROCHELLE*      CLOUDY    33  31  94 S14G20    30.15S FOG     WCI  23
DE KALB*       CLOUDY    31  29  91 SE13      30.16F FOG     WCI  22
PERU*          CLOUDY    36  32  87 S13       30.17S FOG     WCI  27
$$

ILZ005-006-012>014-019>023-211700-
NORTHEAST ILLINOIS

CITY           SKY/WX    TMP DP  RH WIND       PRES   REMARKS
CHICAGO-OHARE  CLOUDY    33  27  78 S12       30.19S WCI  24
CHICAGO-MIDWAY CLOUDY    35  27  72 S10       30.21S WCI  27
AURORA         CLOUDY    35  28  75 S13       30.18F HAZE    WCI  26
LANSING*       CLOUDY    32  27  83 S9        30.23S WCI  24
JOLIET*        CLOUDY    33  28  83 S8        30.21S WCI  26
WAUKEGAN       CLOUDY    34  28  79 S10       30.17F WCI  26
DUPAGE AIRPORT CLOUDY    33  28  81 S12       30.18S HAZE    WCI  24
KANKAKEE*      CLOUDY    32  28  84 S9        30.23F WCI  25
WHEELING       CLOUDY    34  27  75 S9        30.21S WCI  27
MORRIS*        CLOUDY    33  31  91 S13       30.19S FOG     WCI  24
ROMEOVILLE*    CLOUDY    33  29  86 S12       30.20S FOG     WCI  24
NORTHERLY ISL    N/A     34  26  73 S8          N/A  WCI  27
$$

LMZ740>746-211700-
SOUTHERN LAKE MICHIGAN

STATION/POSITION SKY/WX   TEMP    WIND        PRES    VSBY  WAVE
                          AIR SEA DIR/SP/G                  HT/PER
                          (F)     (DEG/KT/KT) (MB)    (MI)  (FT/S)
WAUKEGAN HARBOR            34     180/ 16/ 18   N/A
HARRISON CRIB              33     170/ 19/ 22   N/A
BURNHAM HARBOR             34     180/  9/ 12   N/A
CALUMET HARBOR             33     170/  9/ 14 1022.0F
$$

ILZ025>027-034>036-040-047-049-050-058-095>099-211700-
WEST-CENTRAL ILLINOIS

CITY           SKY/WX    TMP DP  RH WIND       PRES   REMARKS
QUINCY         CLOUDY    40  34  79 S9        30.12S
GALESBURG*     CLOUDY    37  34  90 S8        30.12F WCI  30
MACOMB*        CLOUDY    38  35  91 S12       30.16S FOG     WCI  30
JACKSONVILLE*  CLOUDY    40  34  79 SE10      30.18S
PITTSFIELD*    CLOUDY    40  35  84 SE13      30.16S
$$

ILZ028>032-037-038-041>044-048-051>054-059>061-211700-
CENTRAL ILLINOIS

CITY           SKY/WX    TMP DP  RH WIND       PRES   REMARKS
PONTIAC        CLOUDY    35  31  87 S17       30.21S FOG     WCI  24
BLOOMINGTON    CLOUDY    35  32  89 S15       30.20S FOG     WCI  25
DECATUR        CLOUDY    34  28  79 S12       30.23S WCI  25
PEORIA         CLOUDY    38  31  76 S13       30.17S WCI  30
LACON*         CLOUDY    36  31  82 S7        30.17S WCI  30
LINCOLN*       CLOUDY    38  33  81 S10       30.22R WCI  31
SPRINGFIELD    CLOUDY    38  31  76 SE14      30.20S WCI  30
TAYLORVILLE    CLOUDY    34  30  86 SE10      30.22F WCI  26
$$

ILZ033-039-045-046-055>057-062-063-211700-
EAST-CENTRAL ILLINOIS

CITY           SKY/WX    TMP DP  RH WIND       PRES   REMARKS
CHAMPAIGN      CLOUDY    33  28  81 SE13      30.23S WCI  24
DANVILLE*      CLOUDY    31  27  84 S9        30.23S WCI  23
RANTOUL*       CLOUDY    34  29  84 SE13      30.23F HAZE    WCI  25
MATTOON        CLOUDY    32  26  78 SE7       30.24S WCI  26
PARIS*         CLOUDY    32  30  92 SE13      30.27R FOG     WCI  22
$$

ILZ079-100>102-211700-
SOUTHWEST ILLINOIS

CITY           SKY/WX    TMP DP  RH WIND       PRES   REMARKS
ALTON          CLOUDY    37  32  81 SE9       30.22S WCI  31
BELLEVILLE     CLOUDY    37  32  83 SE9       30.22S WCI  30
CAHOKIA*       CLOUDY    39  33  79 S7        30.22S WCI  34
SPARTA*        CLOUDY    35  30  80 S5        30.25R WCI  31
$$

ILZ064>066-069>071-074>076-080>082-084>086-088>090-092>094-211700-
SOUTH-CENTRAL ILLINOIS

CITY           SKY/WX    TMP DP  RH WIND       PRES   REMARKS
CARBONDALE     PTSUNNY   36  29  75 VRB3      30.25F
CAIRO*         MOSUNNY   37  35  91 NE5       30.24F WCI  33
EFFINGHAM*     CLOUDY    34  27  74 SE7       30.27S WCI  28
MARION         PTSUNNY   37  30  75 SE8       30.25F WCI  31
MT. VERNON     MOSUNNY   36  27  69 S5        30.26S WCI  32
CENTRALIA*     CLOUDY    36  27  71 SE8       30.24F WCI  29
SALEM*         CLOUDY    37  29  73 SE5       30.25S WCI  33
METROPOLIS*    MOSUNNY   36  32  86 E3        30.23F
$$

ILZ067-068-072-073-078-083-087-091-211700-
SOUTHEAST ILLINOIS

CITY           SKY/WX    TMP DP  RH WIND       PRES   REMARKS
LAWRENCEVILLE  SUNNY     34  29  82 SE8       30.28S HAZE    WCI  27
FLORA*         SUNNY     34  28  79 S5        30.27S WCI  30
FAIRFIELD*     MOSUNNY   34  29  83 SE3       30.26S
HARRISBURG*    SUNNY     34  30  86 SE5       30.27S FOG     WCI  30
ROBINSON*      MOSUNNY   33  31  92 SE8       30.29S FOG     WCI  26
CARMI*         SUNNY     37  34  87 SE6       30.27S WCI  33
$$

ABBREVIATIONS USED IN REMARKS
   TC - TEMPERATURE IN CELSIUS
  WCI - WIND CHILL INDEX
   HX - HEAT INDEX
  VSB - VISIBILITY
$$




USA.gov is the U.S. government's official web portal to all federal, state and local government web resources and services.